Regional Weather Roundup
Issued by NWS

Home | Current Version | Previous Version | Text Only | Print | Product List | Glossary On
Versions: 1 2 3 4 5 6 7 8 9 10 11 12 13 14 15 16 17 18 19 20 21 22 23 24 25 26 27
000
ASUS44 KJAN 220210
RWRMS

MISSISSIPPI HOURLY WEATHER ROUNDUP
NATIONAL WEATHER SERVICE JACKSON MS
800 PM CST TUE NOV 21 2017

NOTE: "FAIR: INDICATES FEW OR NO CLOUDS BELOW 12,000 FEET WITH NO
SIGNIFICANT WEATHER AND/OR OBSTRUCTIONS TO VISIBILITY.

MSZ001>002-007>008-010>013-018>021-025>028-034>036-220300-
NORTHWEST MISSISSIPPI

CITY           SKY/WX    TMP DP  RH WIND       PRES   REMARKS
BATESVILLE     FAIR      43  38  84 CALM      30.10R
CLARKSDALE       N/A     48  43  81 MISG      30.09R HAZE
CLEVELAND      FAIR      50  41  72 N6        30.08R
GREENWOOD      PTCLDY    47  40  76 CALM      30.07R
GREENVILLE     CLEAR     46  39  76 N5        30.07R
OLIVE BRANCH   CLEAR    N/A N/A N/A CALM      30.06R
OXFORD         MOCLDY    43  39  87 CALM      30.10R
TUNICA           N/A    N/A N/A N/A CALM      30.10R
WINONA         FAIR      43  42  95 CALM      30.07R
$$

MSZ003>006-009-014>017-022>024-029>033-037>039-220300-
NORTHEAST MISSISSIPPI

CITY           SKY/WX    TMP DP  RH WIND       PRES   REMARKS
ABERDEEN       FAIR      43  43 100 CALM      30.09R
COLUMBUS AFB   CLOUDY    44  40  84 CALM      30.06R
CORINTH        CLOUDY    45  39  81 CALM      30.08R
GOLDN TRIANGLE MOCLDY    47  39  74 N5        30.07R
STARKVILLE     FAIR      45  39  81 CALM      30.08R
TUPELO         PTCLDY    43  37  79 CALM      30.08R
$$

MSZ040-058-220300-
CENTRAL MISSISSIPPI

CITY           SKY/WX    TMP DP  RH WIND       PRES   REMARKS
JACKSON INTL   CLOUDY    53  46  77 CALM      30.04S
JACKSON HAWKNS PTCLDY    53  46  77 NE3       30.05S
MADISON        FAIR      46  45  93 CALM      30.05R
MERIDIAN KEY   PTCLDY    49  48  97 CALM      30.06R
MERIDIAN NAS   CLOUDY    53  44  71 CALM      30.06R
RAYMOND        FAIR      50  48  93 CALM      30.05R
VICKSBURG VKS  CLEAR     52  45  76 S3        30.06R
$$

MSZ059>079-220300-
SOUTH MISSISSIPPI

CITY           SKY/WX    TMP DP  RH WIND       PRES   REMARKS
COLUMBIA       MOCLDY    54  52  94 CALM      30.07S
HATTIESBURG    PTCLDY    54  52  93 CALM      30.03S
LAUREL         CLOUDY    53  53 100 CALM      30.04S
MCCOMB         CLOUDY    57  52  83 NW9       30.04R
NATCHEZ        CLOUDY    54  53  97 CALM      30.06R
PINE BELT      CLEAR     53  49  86 N3        30.04R
$$

MSZ080>082-220300-
COASTAL MISSISSIPPI

CITY           SKY/WX    TMP DP  RH WIND       PRES   REMARKS
BAY ST LOUIS   CLEAR     54  54 100 CALM      30.02R
BILOXI         MOCLDY    60  57  88 CALM      29.99S
PASCAGOULA     PTCLDY    54  52  93 N3        29.99F
GULFPORT       CLOUDY    59  56  89 NW3       29.99F
$$

LAZ007>009-015>016-023>026-220300-
NORTHEAST LOUISIANA

CITY           SKY/WX    TMP DP  RH WIND       PRES   REMARKS
BASTROP        CLOUDY    54  51  90 CALM      30.07R
TALLULAH/VBURG PTCLDY    48  47  96 N3        30.06R
VIDALIA          N/A    N/A N/A N/A MISG      30.05R
$$




USA.gov is the U.S. government's official web portal to all federal, state and local government web resources and services.